FW3600 Weather Reports


Display with metric or nautical units.
time (UTC)temp
F
wind
direction
speed
MPH
gust
MPH
rain 1hr
in
rain 24hr
in
rain mn
in
humidity
%
barometer
mb
20260506192559 60 206 3.0 6.0 0.01 0.24 0.24 98 1007.9
20260506192017 60 213 2.0 7.0 0.01 0.24 0.24 98 1008.0
20260506191535 60 201 3.0 7.0 0.01 0.24 0.24 98 1007.9
20260506191106 60 203 3.0 6.0 0.01 0.24 0.24 98 1008.0
20260506190518 59 208 2.0 7.0 0.02 0.24 0.24 98 1008.1
20260506190052 60 202 2.0 7.0 0.02 0.24 0.24 98 1008.2
20260506185500 59 203 2.0 6.0 0.01 0.23 0.23 98 1008.1
20260506185034 59 203 2.0 5.0 0.01 0.23 0.23 98 1008.2
20260506184502 59 220 1.0 5.0 0.01 0.23 0.23 98 1008.3
20260506184036 59 163 3.0 5.0 0.01 0.23 0.23 98 1008.4
20260506183506 60 196 2.0 5.0 0.01 0.23 0.23 97 1008.4
20260506183051 59 246 2.0 5.0 0.01 0.23 0.23 97 1008.4
20260506182514 59 217 3.0 7.0 0.01 0.23 0.23 97 1008.3
20260506182045 59 192 3.0 6.0 0.01 0.23 0.23 97 1008.4
20260506181519 60 196 2.0 6.0 0.01 0.23 0.23 97 1008.4
20260506181053 59 142 2.0 6.0 0.00 0.22 0.22 97 1008.4
20260506180520 60 194 2.0 7.0 0.00 0.22 0.22 97 1008.4
20260506180005 60 164 3.0 7.0 0.00 0.22 0.22 97 1008.5
20260506175527 60 207 2.0 4.0 0.00 0.22 0.22 97 1008.5
20260506175007 59 192 2.0 7.0 0.00 0.22 0.22 97 1008.5
20260506174536 59 182 3.0 7.0 0.00 0.22 0.22 97 1008.6
20260506174102 59 212 3.0 7.0 0.00 0.22 0.22 97 1008.5
20260506173552 59 251 2.0 6.0 0.01 0.22 0.22 97 1008.5
20260506173050 59 182 2.0 4.0 0.01 0.22 0.22 97 1008.5
20260506172605 59 241 2.0 6.0 0.02 0.22 0.22 97 1008.7
20260506172042 59 196 3.0 9.0 0.02 0.22 0.22 97 1008.7
20260506171624 60 197 5.0 9.0 0.02 0.22 0.22 97 1008.7
20260506171014 60 217 3.0 8.0 0.03 0.22 0.22 97 1008.7
20260506170542 60 210 5.0 8.0 0.03 0.22 0.22 97 1008.6
20260506170024 60 155 4.0 9.0 0.04 0.22 0.22 98 1008.6
20260506165518 60 199 4.0 6.0 0.05 0.22 0.22 98 1008.6
20260506165014 60 203 3.0 7.0 0.06 0.22 0.22 98 1008.6
20260506164536 60 204 3.0 7.0 0.07 0.22 0.22 98 1008.6
20260506164008 60 210 4.0 8.0 0.08 0.22 0.22 98 1008.6
20260506163549 60 216 3.0 8.0 0.08 0.21 0.21 98 1008.2
20260506163031 59 196 4.0 10.0 0.10 0.21 0.21 98 1008.2
20260506162550 59 182 4.0 10.0 0.10 0.20 0.20 98 1008.3
20260506162030 59 214 3.0 8.0 0.12 0.20 0.20 98 1008.7
20260506161523 59 182 3.0 6.0 0.12 0.20 0.20 98 1009.0
20260506161010 59 186 3.0 7.0 0.12 0.19 0.19 98 1009.4
20260506160530 59 202 3.0 7.0 0.12 0.19 0.19 97 1009.7
20260506160049 59 179 3.0 6.0 0.12 0.18 0.18 97 1009.8
20260506155608 59 204 3.0 6.0 0.11 0.17 0.17 97 1009.9
20260506155043 59 188 3.0 6.0 0.11 0.16 0.16 97 1009.8
20260506154517 60 226 3.0 6.0 0.11 0.15 0.15 96 1009.8
20260506154057 60 195 2.0 6.0 0.10 0.14 0.14 96 1009.8
20260506153533 60 202 2.0 9.0 0.10 0.12 0.12 96 1010.0
20260506153005 60 201 4.0 9.0 0.10 0.11 0.11 96 1009.9
20260506152528 60 214 2.0 5.0 0.09 0.09 0.09 96 1010.0
20260506152045 60 194 2.0 7.0 0.08 0.08 0.08 95 1010.0
20260506151604 60 223 3.0 7.0 0.08 0.08 0.08 95 1009.9
20260506151023 60 165 3.0 5.0 0.07 0.07 0.07 95 1009.9
20260506150559 61 191 3.0 6.0 0.07 0.07 0.07 95 1009.8
20260506150009 61 197 2.0 6.0 0.06 0.06 0.06 95 1009.7
20260506145529 61 188 2.0 4.0 0.06 0.06 0.06 94 1009.7
20260506145048 61 202 3.0 5.0 0.05 0.05 0.05 94 1009.6
20260506144610 61 173 2.0 6.0 0.04 0.04 0.04 93 1009.7
20260506144019 61 199 2.0 7.0 0.03 0.03 0.03 92 1009.7
20260506143539 61 194 4.0 7.0 0.02 0.02 0.02 90 1009.8
20260506143101 62 194 2.0 6.0 0.01 0.01 0.01 90 1009.9
20260506142529 62 207 3.0 7.0 0.00 0.00 0.00 88 1009.9
20260506142002 63 204 4.0 7.0 0.00 0.00 0.00 86 1009.8
20260506141523 63 188 3.0 7.0 0.00 0.00 0.00 85 1009.8
20260506141044 64 201 3.0 7.0 0.00 0.00 0.00 84 1009.8
20260506140606 64 195 3.0 8.0 0.00 0.00 0.00 83 1009.7
20260506140014 64 190 3.0 8.0 0.00 0.00 0.00 83 1009.6
20260506135532 64 190 3.0 8.0 0.00 0.00 0.00 83 1009.4
20260506134504 64 217 2.0 9.0 0.00 0.00 0.00 84 1009.4
20260506134043 64 217 4.0 9.0 0.00 0.00 0.00 83 1009.7
20260506133521 64 206 3.0 9.0 0.00 0.00 0.00 83 1009.7
20260506133039 64 187 5.0 9.0 0.00 0.00 0.00 82 1009.7
20260506132559 64 205 4.0 7.0 0.00 0.00 0.00 82 1009.6
20260506132034 64 159 5.0 7.0 0.00 0.00 0.00 82 1009.7
20260506131557 64 189 2.0 12.0 0.00 0.00 0.00 82 1009.7
20260506131001 64 196 6.0 12.0 0.00 0.00 0.00 81 1009.9
20260506130521 64 202 4.0 9.0 0.00 0.00 0.00 81 1009.9
20260506130057 64 184 3.0 9.0 0.00 0.00 0.00 81 1009.9
20260506125532 64 194 3.0 9.0 0.00 0.00 0.00 81 1010.0
20260506125058 64 192 4.0 9.0 0.00 0.00 0.00 81 1009.9
20260506124509 64 173 3.0 8.0 0.00 0.00 0.00 82 1009.9
20260506124028 64 204 3.0 7.0 0.00 0.00 0.00 82 1009.8
20260506123503 64 187 2.0 8.0 0.00 0.00 0.00 82 1009.8
20260506123047 64 180 3.0 9.0 0.00 0.00 0.00 82 1009.8
20260506122609 64 194 3.0 9.0 0.00 0.00 0.00 82 1009.7
20260506122016 64 217 3.0 8.0 0.00 0.00 0.00 82 1009.7
20260506121537 64 193 5.0 8.0 0.00 0.00 0.00 82 1009.7
20260506121100 64 192 4.0 7.0 0.00 0.00 0.00 82 1009.7
20260506120507 64 195 4.0 8.0 0.00 0.00 0.00 82 1009.7
20260506120029 63 198 3.0 8.0 0.00 0.00 0.00 82 1009.7
20260506115519 63 205 5.0 8.0 0.00 0.00 0.00 82 1009.6
20260506115045 63 192 3.0 7.0 0.00 0.00 0.00 83 1009.5
20260506114510 63 165 3.0 7.0 0.00 0.00 0.00 83 1009.7
20260506114104 63 192 3.0 8.0 0.00 0.00 0.00 83 1009.7
20260506113513 63 197 2.0 8.0 0.00 0.00 0.00 83 1009.5
20260506113040 63 192 4.0 7.0 0.00 0.00 0.00 83 1009.5
20260506112553 63 207 3.0 8.0 0.00 0.00 0.00 83 1009.5
20260506112002 63 209 4.0 8.0 0.00 0.00 0.00 83 1009.7
20260506111540 63 171 3.0 7.0 0.00 0.00 0.00 83 1009.8
20260506111101 63 193 4.0 8.0 0.00 0.00 0.00 83 1009.7
20260506110509 63 209 5.0 8.0 0.00 0.00 0.00 83 1009.4
20260506110100 63 224 5.0 10.0 0.00 0.00 0.00 82 1009.3
20260506105524 63 215 5.0 11.0 0.00 0.00 0.00 83 1009.4
20260506105051 63 187 4.0 8.0 0.00 0.00 0.00 83 1009.4
20260506104537 63 187 3.0 9.0 0.00 0.00 0.00 83 1009.2
20260506104103 63 196 4.0 9.0 0.00 0.00 0.00 83 1009.3
20260506103537 63 101 3.0 7.0 0.00 0.00 0.00 83 1009.2
20260506103100 63 192 3.0 8.0 0.00 0.00 0.00 83 1009.3
20260506102513 63 200 4.0 8.0 0.00 0.00 0.00 83 1009.2
20260506102050 63 198 3.0 8.0 0.00 0.00 0.00 83 1009.2
20260506101501 63 192 4.0 8.0 0.00 0.00 0.00 83 1009.2
20260506101032 63 195 3.0 7.0 0.00 0.00 0.00 82 1009.2
20260506100601 63 165 3.0 6.0 0.00 0.00 0.00 82 1009.2
20260506100105 63 217 4.0 8.0 0.00 0.00 0.00 82 1009.3
20260506095509 64 194 4.0 8.0 0.00 0.00 0.00 82 1009.3
20260506095038 64 180 3.0 10.0 0.00 0.00 0.00 82 1009.4
20260506094512 64 198 4.0 10.0 0.00 0.00 0.00 82 1009.5
20260506094027 64 197 4.0 9.0 0.00 0.00 0.00 81 1009.3
20260506093501 64 174 4.0 11.0 0.00 0.00 0.00 81 1009.3
20260506093054 64 201 3.0 11.0 0.00 0.00 0.00 81 1009.3
20260506092516 64 200 3.0 8.0 0.00 0.00 0.00 81 1009.3
20260506092037 64 211 4.0 8.0 0.00 0.00 0.00 81 1009.3
20260506091522 64 169 3.0 6.0 0.00 0.00 0.00 80 1009.3
20260506091008 65 219 3.0 5.0 0.00 0.00 0.00 80 1009.3
20260506090552 65 132 3.0 8.0 0.00 0.00 0.00 80 1009.4
20260506090007 65 199 4.0 8.0 0.00 0.00 0.00 79 1009.5
20260506085533 65 208 3.0 8.0 0.00 0.00 0.00 79 1009.5
20260506085010 65 174 4.0 8.0 0.00 0.00 0.00 79 1009.5
20260506084559 65 200 3.0 8.0 0.00 0.00 0.00 79 1009.5
20260506084104 65 196 3.0 8.0 0.00 0.00 0.00 79 1009.6
20260506083516 65 183 3.0 7.0 0.00 0.00 0.00 80 1009.6
20260506083043 65 142 3.0 6.0 0.00 0.00 0.00 80 1009.5
20260506082538 65 167 4.0 9.0 0.00 0.00 0.00 79 1009.6
20260506082012 64 198 5.0 9.0 0.00 0.00 0.00 79 1009.4
20260506081539 64 192 3.0 6.0 0.00 0.00 0.00 79 1009.5
20260506081011 65 195 3.0 7.0 0.00 0.00 0.00 79 1009.6
20260506080503 64 198 3.0 7.0 0.00 0.00 0.00 79 1009.6
20260506073042 65 195 3.0 5.0 0.00 0.00 0.00 77 1009.7
20260506072521 65 140 3.0 6.0 0.00 0.00 0.00 77 1009.8
20260506072002 65 194 4.0 8.0 0.00 0.00 0.00 76 1009.8
20260506071546 65 140 4.0 8.0 0.00 0.00 0.00 76 1009.8
20260506071003 65 186 3.0 8.0 0.00 0.00 0.00 75 1009.8
20260506070546 65 196 4.0 8.0 0.00 0.00 0.00 76 1009.7
20260506062014 66 186 4.0 7.0 0.00 0.00 0.00 74 1010.3
20260506061503 66 201 3.0 6.0 0.00 0.00 0.00 73 1010.4
20260506061051 66 194 4.0 6.0 0.00 0.00 0.00 73 1010.3
20260506060603 66 200 3.0 5.0 0.00 0.00 0.00 73 1010.5
20260506051003 66 194 2.0 6.0 0.00 0.00 0.00 71 1010.9
20260506050533 66 190 3.0 6.0 0.00 0.00 0.00 71 1010.9
20260506045100 66 196 2.0 5.0 0.00 0.00 0.00 72 1011.0
20260506044524 66 194 2.0 5.0 0.00 0.00 0.00 72 1010.9
20260506044035 66 196 2.0 4.0 0.00 0.00 0.00 71 1010.9
20260506043549 66 183 2.0 5.0 0.00 0.00 0.00 71 1011.0
20260506043111 66 198 2.0 5.0 0.00 0.00 0.00 71 1011.1
20260506042544 66 194 3.0 4.0 0.00 0.00 0.00 71 1011.2
20260506042104 66 196 2.0 5.0 0.00 0.00 0.00 71 1011.1
20260506041537 66 207 2.0 5.0 0.00 0.00 0.00 70 1011.0
20260506041021 66 192 2.0 4.0 0.00 0.00 0.00 70 1010.9
20260506040559 66 155 2.0 6.0 0.00 0.00 0.00 70 1011.0
20260506040007 66 197 3.0 6.0 0.00 0.00 0.00 69 1011.0
20260506035530 67 197 2.0 6.0 0.00 0.00 0.00 69 1011.0
20260506035100 67 194 2.0 6.0 0.00 0.00 0.00 69 1010.9
20260506034622 67 201 3.0 6.0 0.00 0.00 0.00 68 1011.0
20260506034005 67 188 3.0 7.0 0.00 0.00 0.00 68 1010.9
20260506033546 67 196 3.0 9.0 0.00 0.00 0.00 67 1010.8
20260506033007 68 196 4.0 10.0 0.00 0.00 0.00 67 1010.8
20260506032530 68 192 3.0 10.0 0.00 0.00 0.00 66 1010.7
20260506032056 68 191 3.0 8.0 0.00 0.00 0.00 66 1010.7
20260506031541 68 199 4.0 8.0 0.00 0.00 0.00 65 1010.7
20260506031058 68 190 3.0 6.0 0.00 0.00 0.00 64 1010.7
20260506030534 68 196 3.0 6.0 0.00 0.00 0.00 63 1010.7
20260506030020 69 180 2.0 7.0 0.00 0.00 0.00 62 1010.7
20260506025513 69 202 2.0 5.0 0.00 0.00 0.00 61 1010.6
20260506025035 69 190 3.0 5.0 0.00 0.00 0.00 61 1010.8
20260506024606 69 191 1.0 4.0 0.00 0.00 0.00 60 1010.7
20260506024041 70 191 2.0 5.0 0.00 0.00 0.00 60 1010.8
20260506023516 70 183 2.0 10.0 0.00 0.00 0.00 59 1010.8
20260506023105 70 202 4.0 10.0 0.00 0.00 0.00 59 1010.7
20260506022505 70 190 2.0 6.0 0.00 0.00 0.00 58 1010.7
20260506022041 70 208 2.0 6.0 0.00 0.00 0.00 58 1010.8
20260506021537 71 195 3.0 8.0 0.00 0.00 0.00 57 1010.7
20260506021008 71 196 4.0 8.0 0.00 0.00 0.00 57 1010.7
20260506020535 71 204 4.0 7.0 0.00 0.00 0.00 57 1010.6
20260506020008 71 200 3.0 7.0 0.00 0.00 0.00 56 1010.6
20260506015556 71 200 4.0 7.0 0.00 0.00 0.00 56 1010.6
20260506015023 71 202 3.0 7.0 0.00 0.00 0.00 55 1010.6
20260506014512 71 188 4.0 7.0 0.00 0.00 0.00 55 1010.7
20260506014059 72 229 2.0 7.0 0.00 0.00 0.00 54 1010.6
20260506013546 72 188 3.0 6.0 0.00 0.00 0.00 54 1010.5
20260506013009 72 199 3.0 9.0 0.00 0.00 0.00 53 1010.4
20260506012548 72 200 3.0 9.0 0.00 0.00 0.00 53 1010.3
20260506012028 72 190 3.0 10.0 0.00 0.00 0.00 52 1010.2
20260506011513 73 190 4.0 12.0 0.00 0.00 0.00 52 1010.2
20260506010506 73 184 5.0 10.0 0.00 0.00 0.00 52 1010.2
20260506010004 73 164 5.0 10.0 0.00 0.00 0.00 53 1010.1
20260506005523 73 186 4.0 8.0 0.00 0.00 0.00 53 1010.1
20260506005105 73 175 3.0 7.0 0.00 0.00 0.00 53 1010.0
20260506004559 73 198 4.0 8.0 0.00 0.00 0.00 53 1009.9
20260506004011 73 205 3.0 7.0 0.00 0.00 0.00 54 1009.9
20260506003556 73 190 3.0 7.0 0.00 0.00 0.00 54 1009.9
20260506003013 73 178 4.0 8.0 0.00 0.00 0.00 53 1009.8
20260506002551 73 190 3.0 5.0 0.00 0.00 0.00 52 1009.7
20260506002024 74 181 2.0 5.0 0.00 0.00 0.00 51 1009.6
20260506001608 74 151 2.0 4.0 0.00 0.00 0.00 50 1009.6
20260506001017 74 188 2.0 4.0 0.00 0.00 0.00 49 1009.6
20260506000536 74 205 3.0 6.0 0.00 0.00 0.00 49 1009.6
20260506000057 75 192 3.0 6.0 0.00 0.00 0.00 48 1009.6
20260505235505 75 198 3.0 7.0 0.00 0.00 0.00 47 1009.5
20260505235039 75 161 3.0 7.0 0.00 0.00 0.00 47 1009.4
20260505234637 75 202 3.0 7.0 0.00 0.00 0.00 48 1009.4
20260505234022 75 197 3.0 7.0 0.00 0.00 0.00 47 1009.3
20260505233540 75 192 4.0 6.0 0.00 0.00 0.00 46 1009.3
20260505233012 75 200 3.0 6.0 0.00 0.00 0.00 46 1009.3
20260505232531 76 210 4.0 7.0 0.00 0.00 0.00 46 1009.3
20260505232007 76 191 4.0 7.0 0.00 0.00 0.00 46 1009.3
20260505231526 76 178 3.0 8.0 0.00 0.00 0.00 46 1009.3
20260505231046 76 190 4.0 8.0 0.00 0.00 0.00 45 1009.3
20260505230518 76 193 3.0 11.0 0.00 0.00 0.00 45 1009.1
20260505230042 77 215 5.0 11.0 0.00 0.00 0.00 44 1009.3
20260505225558 77 205 5.0 9.0 0.00 0.00 0.00 44 1009.1
20260505225009 77 211 2.0 12.0 0.00 0.00 0.00 45 1009.0
20260505224528 77 191 6.0 13.0 0.00 0.00 0.00 43 1009.1
20260505224001 77 205 4.0 12.0 0.00 0.00 0.00 43 1009.0
20260505223521 78 210 6.0 12.0 0.00 0.00 0.00 42 1009.1
20260505223042 78 186 4.0 10.0 0.00 0.00 0.00 42 1009.1
20260505222602 78 194 5.0 11.0 0.00 0.00 0.00 43 1009.2
20260505222014 78 197 4.0 9.0 0.00 0.00 0.00 42 1009.1
20260505221552 78 186 3.0 11.0 0.00 0.00 0.00 42 1009.0
20260505221002 78 207 6.0 12.0 0.00 0.00 0.00 40 1009.1
20260505220633 78 204 4.0 8.0 0.00 0.00 0.00 42 1009.1
20260505220108 78 234 4.0 13.0 0.00 0.00 0.00 41 1008.9
20260505215540 78 217 5.0 13.0 0.00 0.00 0.00 40 1008.9
20260505215100 78 172 5.0 11.0 0.00 0.00 0.00 41 1009.0
20260505214512 78 200 5.0 10.0 0.00 0.00 0.00 40 1009.0
20260505214030 78 215 4.0 13.0 0.00 0.00 0.00 41 1009.1
20260505213503 78 222 7.0 13.0 0.00 0.00 0.00 40 1009.1
20260505213136 78 202 6.0 13.0 0.00 0.00 0.00 41 1008.9
20260505212606 78 206 5.0 12.0 0.00 0.00 0.00 40 1008.8
20260505212018 78 198 7.0 11.0 0.00 0.00 0.00 40 1008.9
20260505211554 78 184 4.0 10.0 0.00 0.00 0.00 41 1008.7
20260505211032 78 209 6.0 11.0 0.00 0.00 0.00 41 1008.9
20260505210504 78 188 4.0 10.0 0.00 0.00 0.00 41 1008.9
20260505210024 79 254 5.0 13.0 0.00 0.00 0.00 41 1008.9
20260505205544 78 232 6.0 13.0 0.00 0.00 0.00 40 1008.9
20260505205007 78 198 7.0 15.0 0.00 0.00 0.00 39 1009.0
20260505204609 78 193 6.0 15.0 0.00 0.00 0.00 40 1008.9
20260505204011 79 175 5.0 12.0 0.00 0.00 0.00 39 1009.0
20260505203529 79 207 3.0 10.0 0.00 0.00 0.00 41 1009.0
20260505203004 79 225 4.0 10.0 0.00 0.00 0.00 40 1009.0
20260505202524 79 202 4.0 13.0 0.00 0.00 0.00 41 1009.0
20260505202109 79 204 6.0 13.0 0.00 0.00 0.00 38 1009.0
20260505201523 79 207 7.0 12.0 0.00 0.00 0.00 40 1009.0
20260505201037 79 271 6.0 13.0 0.00 0.00 0.00 39 1009.1
20260505200559 79 211 6.0 13.0 0.00 0.00 0.00 39 1009.0
20260505200008 79 213 4.0 10.0 0.00 0.00 0.00 40 1008.9
20260505195527 79 198 7.0 11.0 0.00 0.00 0.00 38 1009.0
20260505195048 80 165 4.0 12.0 0.00 0.00 0.00 40 1009.1
20260505194609 80 205 6.0 12.0 0.00 0.00 0.00 39 1009.2
20260505194044 79 180 6.0 12.0 0.00 0.00 0.00 38 1009.2
20260505193602 80 186 6.0 13.0 0.00 0.00 0.00 37 1009.2
20260505193037 80 242 5.0 10.0 0.00 0.00 0.00 38 1009.0